#timestamp,LO_Frequency,Hit,StdDev 
1551164415.7,286047005.3,Y
1551164435.5,286047003.6,P
1551164455.3,286047002.0,P
1551164475.2,286047003.3,P
1551164495.0,286047005.6,Y
1551164495.9,286047005.6,P
1551164515.8,286046999.7,N
1551164535.6,286047002.7,N
1551164555.4,286047000.7,N
1551164575.3,286046999.8,N
1551164595.1,286047002.5,N
1551164615.9,286047002.8,N
1551164635.7,286046999.8,N
1551164655.5,286047002.5,N
1551164675.4,286047001.5,N
1551164695.2,286047005.6,Y
1551164715.0,286047001.8,P
1551164716.0,286047001.8,P
1551164735.8,286047001.5,P
1551164755.6,286047001.9,Y
1551164775.5,286046999.7,P
1551164795.3,286047000.4,N
1551164815.1,286046999.8,N
1551164835.9,286047002.0,N
1551164855.7,286047003.8,Y
1551164875.6,286047001.7,P
1551164895.4,286047003.2,P
1551164915.2,286047003.8,P
1551164935.1,286047004.8,Y
1551164936.0,286047004.8,P
1551164955.8,286047003.8,P
1551164975.7,286047001.3,N
1551164995.5,286047001.4,N
1551165015.3,286047003.9,N
1551165035.2,286047004.9,Y
1551165055.0,286047002.2,P
1551165055.9,286047002.2,P
1551165075.8,286046999.9,N
1551165095.6,286047002.6,N
1551165115.4,286047002.6,N
1551165135.3,286047000.0,N
1551165155.1,286047002.0,N
1551165175.8,286046999.7,N
1551165195.7,286047002.5,N
1551165215.5,286047003.7,Y
1551165235.4,286047002.8,P
1551165255.2,286047000.7,N
1551165275.0,286047001.2,N
1551165275.9,286047001.2,N
1551165295.8,286047000.9,N
1551165315.6,286047002.0,N
1551165335.5,286047002.0,N
1551165355.3,286047002.6,Y
1551165375.1,286046998.2,P
1551165395.9,286047011.9,P
1551165415.7,286047000.8,N
1551165435.6,286047000.0,N
1551165455.4,286047002.8,N
1551165475.2,286047002.1,N
1551165495.1,286047002.0,N
1551165496.0,286047002.0,N
1551165515.8,286047002.8,N
1551165535.6,286047001.6,N
1551165555.5,286047002.1,N
1551165575.3,286047004.4,N
1551165595.2,286047004.1,N
1551165615.9,286047002.2,N
1551165635.7,286047002.1,N
1551165655.6,286047002.8,N
1551165675.4,286047002.7,N
1551165695.2,286047002.4,N
1551165715.1,286046999.9,N
1551165716.0,286046999.9,N
1551165735.8,286047002.7,N
1551165755.7,286047002.2,N
1551165775.5,286047002.5,N
1551165795.3,286047001.5,N
1551165815.2,286047003.8,N
1551165835.0,286047003.7,N
1551165835.9,286047003.7,N
1551165855.8,286047004.1,N
1551165875.6,286047003.6,N
1551165895.4,286047001.3,N
1551165915.3,286047003.6,N
1551165935.1,286047003.8,N
1551165955.8,286047002.0,N
1551165975.7,286046999.8,N
1551165995.5,286047002.7,N
1551166015.4,286047002.7,N
1551166035.2,286047001.4,N
1551166055.0,286047003.7,Y
1551166055.9,286047003.7,P
1551166075.8,286047001.6,N
1551166095.6,286047002.3,N
1551166115.5,286046999.9,N
1551166135.3,286046999.8,N
1551166155.1,286046999.9,N
1551166175.9,286047000.8,N
1551166195.7,286047001.1,N
1551166215.5,286046999.2,N
1551166235.4,286046999.3,N
1551166255.2,286047002.8,N
1551166275.1,286047004.4,Y
1551166276.0,286047004.4,P
1551166295.8,286047002.5,N
1551166315.6,286046999.8,N
1551166335.5,286047002.3,N
1551166355.3,286047000.1,N
1551166375.2,286046999.9,N
1551166395.9,286047000.3,N
1551166415.7,286047002.7,N
1551166435.6,286047002.3,N
1551166455.4,286047004.1,N
1551166475.2,286047004.4,N
1551166495.1,286047001.8,N
1551166496.0,286047001.8,N
1551166515.8,286046999.7,N
1551166535.7,286047001.1,N
1551166555.5,286047000.4,N
1551166575.3,286047000.7,N
1551166595.2,286047002.5,N
1551166615.0,286047002.5,N
1551166615.9,286047002.5,N
1551166635.8,286047002.6,N
1551166655.6,286047004.4,Y
1551166675.4,286046999.8,P
1551166695.3,286046998.2,N
1551166715.1,286047001.0,N
1551166735.8,286047002.3,N
1551166755.7,286047001.8,N
1551166775.5,286047002.5,N
1551166795.4,286047002.1,N
1551166815.2,286047002.6,N
1551166835.0,286047000.3,N
1551166835.9,286047000.3,N
1551166855.8,286047001.2,N
1551166875.6,286047000.5,N
1551166895.5,286046998.2,N
1551166915.3,286046999.0,N
1551166935.1,286046999.9,N
1551166955.9,286047000.4,N
1551166975.7,286047002.5,N
1551166995.5,286047001.3,N
1551167015.4,286047004.1,Y
1551167035.2,286047001.8,P
1551167055.1,286047000.1,N
1551167056.0,286047000.1,N
1551167075.8,286047002.5,Y
1551167095.6,286046998.2,P
1551167115.5,286047000.0,N
1551167135.3,286047000.1,N
1551167155.1,286047000.0,N
1551167175.9,286047002.7,Y
1551167195.7,286047001.4,P
1551167215.6,286047000.7,N
1551167235.4,286046998.3,N
1551167255.2,286046996.6,N
1551167275.1,286046997.7,N
1551167276.0,286046997.7,N
1551167295.8,286046997.0,N
1551167315.7,286046994.9,Y
1551167335.5,286046999.0,P
1551167355.3,286046998.6,P
1551167375.2,286047002.3,P
1551167395.0,286047000.2,N
1551167395.9,286047000.2,N
1551167415.7,286047000.4,N
1551167435.6,286047000.3,N
1551167455.4,286047001.2,N
1551167475.3,286047002.7,N
1551167495.1,286047001.5,N
1551167515.8,286047002.7,N
1551167535.7,286047000.9,N
1551167555.5,286046998.9,N
1551167575.4,286046998.9,N
1551167595.2,286046999.3,N
1551167615.0,286047000.7,N
1551167615.9,286047000.7,N
1551167635.8,286046998.9,N
1551167655.6,286046999.3,N
1551167675.4,286046998.3,N
1551167695.3,286047000.7,N
1551167715.1,286046996.5,N
1551167735.9,286046998.0,N
1551167755.7,286046995.2,Y
1551167775.5,286046998.0,P
1551167795.4,286046995.7,P
1551167815.2,286046993.7,P
1551167835.1,286046994.6,N
1551167836.0,286046994.6,N
1551167855.8,286046996.3,N
1551167875.6,286046996.1,N
1551167895.5,286046995.4,N
1551167915.3,286046997.1,N
1551167935.1,286046996.7,N
1551167955.9,286046996.8,N
1551167975.7,286046997.7,N
1551167995.6,286046998.3,N
